Regional Weather Roundup
Issued by NWS Grand Forks, ND

Home | Current Version | Previous Version | Graphics & Text | Print | Product List | Glossary On
Versions: 1 2 3 4 5 6 7 8 9 10 11 12 13 14 15 16 17 18 19 20 21 22 23 24 25 26 27 28 29 30 31 32 33 34 35 36 37 38 39 40 41 42 43 44 45 46 47 48 49 50
000
ASUS43 KFGF 201631
RWRFGF
PRAIRIE TO PINES  WEATHER ROUNDUP
NATIONAL WEATHER SERVICE EASTERN NORTH DAKOTA/GRAND FORKS ND
1100 AM CDT FRI APR 20 2018

 **SATELLITE DATA USED TO AUGMENT SKY COVER AT AUTOMATED STATIONS**
 *****  WEATHER ACROSS EASTERN NORTH DAKOTA  *****

CITY           SKY/WX    TMP DP  RH WIND       PRES   REMARKS
GRAND FORKS    FAIR      48  29  47 SW9       30.41F
GRAND FRKS AFB FAIR      50  27  41 S6        30.40F
GRAND FRKS NWS   N/A     48  31  52 S10       30.39S
DEVILS LAKE    FAIR      45  28  51 SE6       30.38F
FARGO          FAIR      48  32  53 S7        30.43S
WAHPETON ARPT  FAIR      45  30  57 S9        30.45F
$$

 ***** WEATHER ACROSS CENTRAL AND WESTERN NORTH DAKOTA  *****

CITY           SKY/WX    TMP DP  RH WIND       PRES   REMARKS
BISMARCK       FAIR      49  31  49 SE13      30.30F
MINOT          FAIR      49  28  44 S15       30.29F
JAMESTOWN      FAIR      44  32  62 S10       30.37F
MINOT AFB      FAIR      48  31  53 S10       30.28F
GARRISON         N/A     43  31  62 SE14      30.28F
WILLISTON      FAIR      49  31  49 SE8       30.22F
DICKINSON      FAIR      47  31  53 SE12      30.19F
HETTINGER      FAIR      43  30  60 SE14      30.21F
$$

 *****  OTHER AIRPORT OBSERVATIONS IN OUR AREA  *****

CITY           SKY/WX    TMP DP  RH WIND       PRES   REMARKS
WALHALLA       FAIR      54  34  47 VRB5      30.37F
GRAFTON AIRPOR FAIR      50  32  50 VRB6      30.42S
VALLEY CITY AR FAIR      43  34  70 S10       30.42S
CANDO          FAIR      48  28  46 S8        30.38F
CAVALIER APRT    N/A     50  36  57 S6        30.38S
GWINNER          N/A     45  32  61 S3        30.41F
SHEYENNE NWR     N/A     47  25  41 S7        29.95S
ROLLA          FAIR      45  30  57 S7        30.35S
 ***** THE ABOVE OBSERVATIONS ARE NON NWS ARE NOT QUALITY
       CONTROLLED AND MAY MIS-REPORT RAIN FOR SNOW...
$$

  *****  WEATHER ACROSS NORTHERN MINNESOTA  *****

CITY           SKY/WX    TMP DP  RH WIND       PRES   REMARKS
FLAG ISLAND    FAIR      37  28  70 SE6       30.40S
WARROAD        FAIR      54  32  43 S7        30.41S
ROSEAU         FAIR      52  36  54 SW5       30.41S
HALLOCK        FAIR      50  41  71 S9        30.40F
THF RVR FALLS  FAIR      48  27  44 W8        30.43S
BAUDETTE       FAIR      51  30  44 CALM      30.41F
WASKISH        FAIR      50  34  53 NW3       30.43S
CROOKSTON      FAIR      48  32  53 S7        30.43F
STEPHEN NDAWN    N/A     46  37  71 S8          N/A
GREENBUSH NDAW   N/A     50  37  62 S8          N/A
$$
  *****  WEATHER ACROSS CENTRAL AND WEST MINNESOTA  *****

CITY           SKY/WX    TMP DP  RH WIND       PRES   REMARKS
FOSSTON        FAIR      50  25  37 SW6       30.43F
BEMIDJI        FAIR      51  29  42 SW5       30.42S
PARK RAPIDS    FAIR      49  30  48 CALM      30.43F
ELBOW LAKE     FAIR      45  27  48 S7        30.46F
WADENA         FAIR      48  27  43 SE5       30.44S
DETROIT LAKES  FAIR      50  23  34 SW5       30.44S
MOORHEAD       FAIR      48  30  49 S9        30.45S
FERGUS FALLS   FAIR      46  27  46 S10       30.43F
MORRIS MN      FAIR      45  30  57 SE7       30.45F
STAPLES        FAIR      48  27  43 NW3       30.45S
$$
  *****  WEATHER ELSEWHERE ACROSS MINNESOTA  *****

CITY           SKY/WX    TMP DP  RH WIND       PRES   REMARKS
DULUTH         FAIR      51  25  36 W6        30.43F
INTRNTL FALLS  FAIR      52  25  35 VRB3      30.42S
ELY            FAIR      52  10  19 CALM      30.42F
CLOQUET        FAIR      52  16  24 SW7       30.44S
WHEATON        FAIR      45  30  57 SE7       30.46F
BRAINERD       FAIR      49  28  44 CALM      30.46S
HIBBING        FAIR      50  19  29 CALM      30.42F
ALEXANDRIA     FAIR      47  22  37 S9        30.47R
SAINT CLOUD    FAIR      44  23  43 S6        30.49R
MINNEAPOLIS    PTSUNNY   45  22  40 CALM      30.51S
$$

  *****  WEATHER ACROSS SOUTH DAKOTA  *****

CITY           SKY/WX    TMP DP  RH WIND       PRES   REMARKS
SIOUX FALLS    CLOUDY    41  28  60 SE8       30.42F
BROOKINGS      FAIR      40  29  64 SE12      30.42F
WATERTOWN      FAIR      41  32  70 S12       30.40F
HURON          FAIR      39  29  67 SE10      30.39S
SISSETON         N/A     45  33  63 SE8       30.42F
ABERDEEN       FAIR      46  31  55 S13       30.39F
MITCHELL       FAIR      38  31  76 SE10      30.39S
PIERRE         FAIR      41  33  73 SE14      30.29S
MOBRIDGE       FAIR      48  33  56 SE16      30.27F
RAPID CITY     FAIR      45  29  53 SE17      30.15S
$$

  *****  SOME WEATHER IN NEARBY STATES *****

CITY           SKY/WX    TMP DP  RH WIND       PRES   REMARKS
GLASGOW MT     FAIR      49  33  54 SE10      30.15S
GREAT FALLS MT FAIR      50  32  50 SW9       30.13F
CHEYENNE WY    FAIR      43  27  53 SE17G24   29.98R
SCOTTSBLUFF NE CLOUDY    45  32  60 SE22      30.07R
OMAHA NE       CLOUDY    53  31  42 SE12      30.42S
DES MOINES IA  CLOUDY    52  30  43 SE8       30.48F
DAVENPORT IA   FAIR      52  25  35 E6        30.54S
CHICAGO IL     FAIR      53  25  33 CALM      30.51S
EAU CLAIRE WI  FAIR      46  25  43 CALM      30.50S
LA CROSSE WI   FAIR      45  29  53 CALM      30.52F
$$

  *****  SOME NATIONAL WEATHER *****

CITY           SKY/WX    TMP DP  RH WIND       PRES   REMARKS
LA GUARDIA NY  FAIR      46  24  42 NW13G23   30.17S
RALEIGH NC     FAIR      56  28  34 VRB5      30.36S
ATLANTA GA     FAIR      57  29  34 SE15G21   30.35F
NEW ORLEANS LA PTSUNNY   61  43  51 NE13      30.28R
OKLAHOMA CITY  PTSUNNY   56  34  43 SE20      30.29S
ALBUQUERQUE NM FAIR      53  19  26 W15G23    29.93S
SALT LAKE CITY PTSUNNY   57  36  45 N20       29.88R
LOS ANGELES CA FAIR      60  48  64 VRB3      30.14S
BOISE ID       FAIR      52  31  44 NW17G26   30.12S
SEATTLE WA     PTSUNNY   48  39  71 S6        30.26S
$$

*** WEATHER ACROSS MANITOBA...SASKATCHEWAN AND ONTARIO ***
                ***ONTARIO***

CITY           SKY/WX    TMP DP  RH WIND       PRES   REMARKS
GERALDTON      MOSUNNY   52  14  22 VRB2      30.39S
THUNDER BAY    MOSUNNY   54  16  22 S3        30.43S
SIOUX LOOKOUT  PTSUNNY   52  18  25 S6        30.39F
TORONTO        MOSUNNY   39  23  52 NW16      30.39S
BIG TROUT LK   SUNNY     43  25  49 S3        30.44F
PICKLE LAKE    MOSUNNY   52  23  32 E6        30.39S
DRYDEN         SUNNY     52  25  35 S8        30.39S
KENORA         PTSUNNY   50  23  34 VRB2      30.39S
$$
                *** MANITOBA***

CITY           SKY/WX    TMP DP  RH WIND       PRES   REMARKS
BRANDON        CLOUDY    46  37  71 E6        30.34F
DAUPHIN        SUNNY     45  34  65 NE3       30.33F
ISLAND LAKE    SUNNY     45  25  45 W3        30.39F
PILOT MOUND      N/A     48  34  57 SW8         N/A
THE PAS        SUNNY     43  27  52 SE12      30.27F
THOMPSON       MOSUNNY   50  21  32 SW9       30.27F
WINNIPEG       MOSUNNY   52  37  58 S6        30.38F
LYNN LAKE      CLOUDY    46  25  42 SW18G25   30.10F
CHURCHILL      PTSUNNY   45  27  49 S20G25    30.17F
GILLAM         PTSUNNY   50  21  32 S13G23    30.31F
$$
                ***SASKATCHEWAN***

CITY           SKY/WX    TMP DP  RH WIND       PRES   REMARKS
ESTEVAN        PTSUNNY   48  32  53 SE13      30.25F
KINDERSLEY     PTSUNNY   45  37  76 SW9       30.06S
LLOYDMINSTER   PTSUNNY   43  36  75 S8        30.02S
PRINCE ALBERT  MOSUNNY   39  30  70 S8        30.17F
REGINA         MOSUNNY   41  36  81 SE16      30.21F
YORKTON        SUNNY     39  30  70 SE10      30.27F
N. BATTLEFORD  SUNNY     43  36  75 E10       30.09F
LA RONGE       PTSUNNY   50  28  43 S12G20    30.07F
SASKATOON      MOSUNNY   48  36  61 S15       30.12F
SWIFT CURRENT  PTSUNNY   45  36  70 S20G26    30.09F
$$
NOTE: THESE ARE AUTOMATED STATIONS WITH LIMITED QUALITY CONTROL
      "FAIR" INDICATES FEW OR NO CLOUDS BELOW 12,000 FEET WITH NO
      SIGNIFICANT WEATHER AND/OR OBSTRUCTIONS TO VISIBILITY.
      SKY/WX - SKY CONDITION AND SIGNIFICANT WEATHER.
      TMP - AIR TEMPERATURE.    DP   - DEWPOINT TEMPERATURE.
      RH  - RELATIVE HUMIDITY.  PRES - PRESSURE.
      HX  - HEAT INDEX.         WCI  - WIND CHILL INDEX.
$



USA.gov is the U.S. government's official web portal to all federal, state and local government web resources and services.